GW2923 Weather Reports


Display with metric or nautical units.
time (UTC)temp
F
wind
direction
speed
MPH
gust
MPH
rain 1hr
in
rain 24hr
in
rain mn
in
humidity
%
barometer
mb
20260507015036 22 0 0.0 2.0 0.00 0.00 0.00 84 1014.7
20260507014554 22 94 1.0 2.0 0.00 0.00 0.00 84 1014.6
20260507014034 22 94 1.0 2.0 0.00 0.00 0.00 84 1014.6
20260507013539 22 94 1.0 2.0 0.00 0.00 0.00 83 1014.6
20260507013045 22 94 1.0 2.0 0.00 0.00 0.00 83 1014.6
20260507012535 22 0 0.0 1.0 0.00 0.00 0.00 84 1014.6
20260507012035 22 0 0.0 1.0 0.00 0.00 0.00 84 1014.7
20260507011552 22 0 0.0 0.0 0.00 0.00 0.00 84 1014.6
20260507011034 22 0 0.0 2.0 0.00 0.00 0.00 84 1014.7
20260507010535 23 0 0.0 2.0 0.00 0.00 0.00 83 1014.7
20260507010045 23 0 1.0 3.0 0.00 0.00 0.00 83 1014.6
20260507005535 23 94 1.0 3.0 0.00 0.00 0.00 83 1014.6
20260507005034 23 94 1.0 3.0 0.00 0.00 0.00 83 1014.6
20260507004556 23 113 1.0 3.0 0.00 0.00 0.00 83 1014.6
20260507004035 23 126 1.0 3.0 0.00 0.00 0.00 83 1014.5
20260507003534 23 132 1.0 3.0 0.00 0.00 0.00 83 1014.5
20260507003050 23 145 1.0 3.0 0.00 0.00 0.00 82 1014.5
20260507002534 24 140 1.0 3.0 0.00 0.00 0.00 82 1014.5
20260507002034 24 140 1.0 3.0 0.00 0.00 0.00 81 1014.5
20260507001551 24 140 1.0 3.0 0.00 0.00 0.00 81 1014.6
20260507001034 24 170 0.0 2.0 0.00 0.00 0.00 81 1014.6
20260507000534 24 0 0.0 0.0 0.00 0.00 0.00 81 1014.6
20260507000044 25 0 0.0 1.0 0.00 0.00 0.00 81 1014.5
20260506235534 25 0 0.0 4.0 0.00 0.00 0.00 81 1014.5
20260506235033 25 170 1.0 4.0 0.00 0.00 0.00 81 1014.5
20260506234555 25 178 1.0 2.0 0.00 0.00 0.00 81 1014.5
20260506234034 25 178 0.0 2.0 0.00 0.00 0.00 81 1014.4
20260506233534 25 178 0.0 2.0 0.00 0.00 0.00 80 1014.5
20260506233052 25 0 0.0 5.0 0.00 0.00 0.00 80 1014.5
20260506232533 26 191 0.0 5.0 0.00 0.00 0.00 79 1014.4
20260506232034 26 177 1.0 4.0 0.00 0.00 0.00 79 1014.4
20260506231553 26 201 0.0 4.0 0.00 0.00 0.00 78 1014.5
20260506231034 26 224 1.0 5.0 0.00 0.00 0.00 78 1014.5
20260506230533 27 0 1.0 5.0 0.00 0.00 0.00 78 1014.5
20260506230050 27 207 0.0 4.0 0.00 0.00 0.00 78 1014.4
20260506225530 27 203 1.0 5.0 0.00 0.00 0.00 78 1014.5
20260506225034 27 187 1.0 5.0 0.00 0.00 0.00 78 1014.5
20260506224543 27 0 1.0 3.0 0.00 0.00 0.00 77 1014.4
20260506224031 27 0 1.0 3.0 0.00 0.00 0.00 79 1014.4
20260506223532 27 200 1.0 3.0 0.00 0.00 0.00 78 1014.5
20260506223042 27 221 2.0 3.0 0.00 0.00 0.00 79 1014.4
20260506222530 27 0 1.0 3.0 0.00 0.00 0.00 79 1014.4
20260506222030 27 187 1.0 3.0 0.00 0.00 0.00 79 1014.4
20260506221539 27 0 0.0 4.0 0.00 0.00 0.00 78 1014.2
20260506221030 27 0 1.0 4.0 0.00 0.00 0.00 78 1014.2
20260506220530 27 189 1.0 4.0 0.00 0.00 0.00 78 1014.3
20260506220039 26 201 1.0 4.0 0.00 0.00 0.00 78 1014.2
20260506215530 26 217 0.0 5.0 0.00 0.00 0.00 78 1014.3
20260506215033 26 173 1.0 5.0 0.00 0.00 0.00 77 1014.1
20260506214545 26 184 1.0 4.0 0.00 0.00 0.00 77 1014.1
20260506214036 27 0 1.0 4.0 0.00 0.00 0.00 77 1014.1
20260506213533 27 185 1.0 4.0 0.00 0.00 0.00 77 1014.1
20260506213043 27 210 0.0 4.0 0.00 0.00 0.00 77 1014.1
20260506212530 27 201 1.0 4.0 0.00 0.00 0.00 77 1014.0
20260506212031 27 0 0.0 5.0 0.00 0.00 0.00 77 1013.9
20260506211549 27 172 1.0 5.0 0.00 0.00 0.00 76 1014.0
20260506211030 27 170 1.0 4.0 0.00 0.00 0.00 76 1014.0
20260506210531 27 175 1.0 5.0 0.00 0.00 0.00 76 1014.0
20260506210040 27 0 1.0 5.0 0.00 0.00 0.00 76 1014.0
20260506205533 27 174 1.0 5.0 0.00 0.00 0.00 75 1014.0
20260506205030 27 187 2.0 5.0 0.00 0.00 0.00 75 1014.0
20260506204541 27 176 2.0 5.0 0.00 0.00 0.00 74 1013.9
20260506204031 28 155 1.0 4.0 0.00 0.00 0.00 74 1013.9
20260506203532 28 175 1.0 5.0 0.00 0.00 0.00 73 1013.8
20260506203044 28 179 1.0 5.0 0.00 0.00 0.00 73 1013.7
20260506202530 28 147 1.0 4.0 0.00 0.00 0.00 72 1013.7
20260506202034 29 171 1.0 4.0 0.00 0.00 0.00 72 1013.8
20260506201542 29 174 1.0 4.0 0.00 0.00 0.00 71 1013.7
20260506201029 29 232 0.0 1.0 0.00 0.00 0.00 70 1013.8
20260506200632 30 0 0.0 0.0 0.00 0.00 0.00 70 1013.6
20260506200042 30 0 0.0 0.0 0.00 0.00 0.00 69 1013.6
20260506195533 30 0 0.0 2.0 0.00 0.00 0.00 69 1013.6
20260506195032 31 0 0.0 2.0 0.00 0.00 0.00 68 1013.6
20260506194549 31 232 1.0 2.0 0.00 0.00 0.00 68 1013.4
20260506194030 32 232 0.0 1.0 0.00 0.00 0.00 67 1013.4
20260506193529 32 0 0.0 1.0 0.00 0.00 0.00 66 1013.4
20260506193045 33 0 0.0 1.0 0.00 0.00 0.00 66 1013.3
20260506192529 33 232 0.0 1.0 0.00 0.00 0.00 66 1013.3
20260506192034 33 232 0.0 1.0 0.00 0.00 0.00 66 1013.3
20260506191545 33 232 0.0 0.0 0.00 0.00 0.00 67 1013.3
20260506191033 33 0 0.0 2.0 0.00 0.00 0.00 66 1013.3
20260506190533 32 0 0.0 3.0 0.00 0.00 0.00 67 1013.3
20260506190043 33 232 1.0 3.0 0.00 0.00 0.00 65 1013.3
20260506185536 34 232 1.0 3.0 0.00 0.00 0.00 64 1013.3
20260506185029 35 244 1.0 3.0 0.00 0.00 0.00 62 1013.2
20260506184552 36 0 0.0 2.0 0.00 0.00 0.00 60 1013.2
20260506184030 37 0 0.0 3.0 0.00 0.00 0.00 58 1013.2
20260506183530 37 257 0.0 3.0 0.00 0.00 0.00 58 1013.1
20260506183050 38 257 2.0 8.0 0.00 0.00 0.00 57 1013.1
20260506182529 38 255 2.0 8.0 0.00 0.00 0.00 57 1013.2
20260506182029 39 253 3.0 8.0 0.00 0.00 0.00 55 1013.1
20260506181539 39 263 3.0 9.0 0.00 0.00 0.00 55 1013.1
20260506181029 39 270 4.0 9.0 0.00 0.00 0.00 54 1013.1
20260506180533 40 253 2.0 7.0 0.00 0.00 0.00 55 1013.1
20260506180047 40 233 3.0 8.0 0.00 0.00 0.00 53 1013.1
20260506175532 41 249 3.0 8.0 0.00 0.00 0.00 52 1013.2
20260506175035 41 234 4.0 9.0 0.00 0.00 0.00 51 1013.1
20260506174541 41 222 4.0 10.0 0.00 0.00 0.00 50 1013.1
20260506174034 42 222 4.0 10.0 0.00 0.00 0.00 50 1013.2
20260506173530 42 254 5.0 10.0 0.00 0.00 0.00 50 1013.2
20260506173117 42 268 6.0 12.0 0.00 0.00 0.00 49 1013.1
20260506172529 42 203 3.0 12.0 0.00 0.00 0.00 49 1013.1
20260506172030 42 236 7.0 12.0 0.00 0.00 0.00 48 1013.1
20260506171539 43 259 7.0 14.0 0.00 0.00 0.00 48 1013.1
20260506171033 43 228 8.0 14.0 0.00 0.00 0.00 46 1013.1
20260506170529 43 233 4.0 10.0 0.00 0.00 0.00 48 1013.0
20260506170050 43 272 5.0 11.0 0.00 0.00 0.00 48 1013.0
20260506165529 43 257 5.0 13.0 0.00 0.00 0.00 48 1013.0
20260506165030 43 259 5.0 14.0 0.00 0.00 0.00 48 1012.9
20260506164541 43 255 7.0 14.0 0.00 0.00 0.00 46 1012.9
20260506164030 43 256 8.0 15.0 0.00 0.00 0.00 48 1012.9
20260506163535 43 238 8.0 15.0 0.00 0.00 0.00 49 1012.8
20260506163042 44 236 9.0 15.0 0.00 0.00 0.00 50 1012.9
20260506162530 44 242 9.0 14.0 0.00 0.00 0.00 51 1013.0
20260506162033 44 261 7.0 14.0 0.00 0.00 0.00 50 1012.7
20260506161540 44 249 8.0 18.0 0.00 0.00 0.00 50 1012.7
20260506161030 44 247 8.0 18.0 0.00 0.00 0.00 50 1012.7
20260506160530 45 231 8.0 16.0 0.00 0.00 0.00 50 1012.7
20260506160040 45 255 8.0 15.0 0.00 0.00 0.00 49 1012.8
20260506155530 45 266 7.0 14.0 0.00 0.00 0.00 48 1012.8
20260506155032 45 261 7.0 17.0 0.00 0.00 0.00 49 1012.7
20260506154553 45 269 8.0 17.0 0.00 0.00 0.00 49 1012.6
20260506154031 45 256 8.0 14.0 0.00 0.00 0.00 50 1012.5
20260506153533 45 279 9.0 13.0 0.00 0.00 0.00 49 1012.6
20260506153047 45 251 7.0 15.0 0.00 0.00 0.00 49 1012.6
20260506152532 46 266 10.0 15.0 0.00 0.00 0.00 47 1012.6
20260506152032 46 250 7.0 15.0 0.00 0.00 0.00 49 1012.5
20260506151542 46 251 10.0 15.0 0.00 0.00 0.00 47 1012.5
20260506151030 46 251 8.0 16.0 0.00 0.00 0.00 49 1012.6
20260506150533 46 263 6.0 16.0 0.00 0.00 0.00 47 1012.5
20260506150043 46 272 11.0 16.0 0.00 0.00 0.00 48 1012.6
20260506145531 45 220 7.0 16.0 0.00 0.00 0.00 48 1012.5
20260506145032 46 295 9.0 15.0 0.00 0.00 0.00 46 1012.5
20260506144542 46 267 9.0 18.0 0.00 0.00 0.00 46 1012.5
20260506144034 46 277 10.0 18.0 0.00 0.00 0.00 46 1012.5
20260506143530 46 257 7.0 18.0 0.00 0.00 0.00 46 1012.5
20260506143045 46 282 8.0 18.0 0.00 0.00 0.00 45 1012.6
20260506142530 46 264 9.0 18.0 0.00 0.00 0.00 44 1012.5
20260506142029 46 258 10.0 18.0 0.00 0.00 0.00 46 1012.5
20260506141542 46 259 7.0 18.0 0.00 0.00 0.00 44 1012.5
20260506141030 46 222 8.0 19.0 0.00 0.00 0.00 46 1012.4
20260506140534 46 234 10.0 19.0 0.00 0.00 0.00 45 1012.5
20260506140042 46 266 10.0 17.0 0.00 0.00 0.00 43 1012.5
20260506135530 46 253 10.0 17.0 0.00 0.00 0.00 45 1012.5
20260506135033 46 253 11.0 19.0 0.00 0.00 0.00 46 1012.5
20260506134541 46 252 11.0 20.0 0.00 0.00 0.00 46 1012.5
20260506134029 46 249 8.0 20.0 0.00 0.00 0.00 47 1012.5
20260506133529 46 295 11.0 18.0 0.00 0.00 0.00 46 1012.4
20260506133040 46 264 9.0 21.0 0.00 0.00 0.00 46 1012.4
20260506132533 46 251 11.0 21.0 0.00 0.00 0.00 47 1012.4
20260506132032 46 262 12.0 20.0 0.00 0.00 0.00 46 1012.4
20260506131550 46 241 10.0 19.0 0.00 0.00 0.00 48 1012.3
20260506131030 46 272 10.0 20.0 0.00 0.00 0.00 48 1012.3
20260506130533 46 274 13.0 20.0 0.00 0.00 0.00 48 1012.3
20260506130059 46 261 8.0 21.0 0.00 0.00 0.00 49 1012.2
20260506125532 46 228 12.0 21.0 0.00 0.00 0.00 47 1012.3
20260506125036 47 250 9.0 17.0 0.00 0.00 0.00 46 1012.3
20260506124551 46 249 8.0 17.0 0.00 0.00 0.00 49 1012.2
20260506124029 45 266 13.0 17.0 0.00 0.00 0.00 49 1012.1
20260506123529 46 220 9.0 21.0 0.00 0.00 0.00 47 1012.2
20260506123042 46 258 13.0 21.0 0.00 0.00 0.00 47 1012.2
20260506122530 46 254 10.0 19.0 0.00 0.00 0.00 48 1012.1
20260506122032 46 292 10.0 20.0 0.00 0.00 0.00 49 1012.1
20260506121537 47 245 8.0 20.0 0.00 0.00 0.00 49 1012.0
20260506121029 46 240 12.0 20.0 0.00 0.00 0.00 48 1012.0
20260506120534 46 304 12.0 20.0 0.00 0.00 0.00 50 1012.1
20260506120050 46 261 12.0 18.0 0.00 0.00 0.00 49 1012.1
20260506115529 46 241 10.0 21.0 0.00 0.00 0.00 47 1011.9
20260506115032 46 243 12.0 21.0 0.00 0.00 0.00 48 1011.9
20260506114542 46 261 11.0 20.0 0.00 0.00 0.00 45 1011.9
20260506114029 46 237 13.0 22.0 0.00 0.00 0.00 47 1011.8
20260506113533 46 253 13.0 22.0 0.00 0.00 0.00 47 1011.8
20260506113049 46 276 10.0 22.0 0.00 0.00 0.00 49 1011.8
20260506112530 46 240 13.0 22.0 0.00 0.00 0.00 47 1011.8
20260506112032 46 255 11.0 19.0 0.00 0.00 0.00 48 1011.7
20260506111537 46 258 11.0 21.0 0.00 0.00 0.00 46 1011.7
20260506111033 46 263 12.0 21.0 0.00 0.00 0.00 46 1011.7
20260506110531 46 247 7.0 19.0 0.00 0.00 0.00 49 1011.5
20260506110043 46 238 13.0 20.0 0.00 0.00 0.00 46 1011.5
20260506105529 47 240 8.0 20.0 0.00 0.00 0.00 46 1011.3
20260506105050 46 283 11.0 21.0 0.00 0.00 0.00 47 1011.3
20260506104551 46 244 13.0 21.0 0.00 0.00 0.00 45 1011.2
20260506104034 46 247 11.0 21.0 0.00 0.00 0.00 45 1011.4
20260506103534 46 191 10.0 21.0 0.00 0.00 0.00 45 1011.3
20260506103049 47 272 11.0 21.0 0.00 0.00 0.00 48 1011.2
20260506102534 46 225 12.0 21.0 0.00 0.00 0.00 47 1011.1
20260506102034 45 267 12.0 21.0 0.00 0.00 0.00 48 1011.1
20260506101549 45 228 14.0 23.0 0.00 0.00 0.00 44 1011.1
20260506101033 46 263 14.0 23.0 0.00 0.00 0.00 47 1011.0
20260506100534 46 269 11.0 22.0 0.00 0.00 0.00 47 1011.0
20260506100059 45 257 9.0 21.0 0.00 0.00 0.00 49 1010.9
20260506095533 46 259 14.0 22.0 0.00 0.00 0.00 48 1010.9
20260506095033 46 252 11.0 22.0 0.00 0.00 0.00 50 1010.9
20260506094544 45 255 13.0 20.0 0.00 0.00 0.00 47 1010.8
20260506094034 46 272 11.0 19.0 0.00 0.00 0.00 47 1010.8
20260506093533 45 253 12.0 21.0 0.00 0.00 0.00 47 1010.7
20260506093047 45 256 12.0 22.0 0.00 0.00 0.00 47 1010.7
20260506092534 45 258 15.0 22.0 0.00 0.00 0.00 48 1010.7
20260506092033 45 264 11.0 21.0 0.00 0.00 0.00 49 1010.4
20260506091542 45 239 11.0 21.0 0.00 0.00 0.00 50 1010.4
20260506091037 45 292 12.0 24.0 0.00 0.00 0.00 51 1010.4
20260506090533 45 266 11.0 24.0 0.00 0.00 0.00 50 1010.4
20260506090038 45 230 14.0 24.0 0.00 0.00 0.00 49 1010.4
20260506085533 45 259 12.0 21.0 0.00 0.00 0.00 50 1010.4
20260506085034 45 266 12.0 21.0 0.00 0.00 0.00 52 1010.4
20260506084559 44 243 11.0 21.0 0.00 0.00 0.00 51 1010.2
20260506084033 44 247 13.0 21.0 0.00 0.00 0.00 50 1010.2
20260506083533 45 270 10.0 20.0 0.00 0.00 0.00 52 1010.2
20260506083039 45 257 11.0 20.0 0.00 0.00 0.00 50 1010.2
20260506082534 45 280 12.0 20.0 0.00 0.00 0.00 52 1010.1
20260506082033 45 216 12.0 20.0 0.00 0.00 0.00 51 1010.1
20260506081547 45 276 10.0 21.0 0.00 0.00 0.00 53 1009.9
20260506081034 44 269 13.0 21.0 0.00 0.00 0.00 51 1009.9
20260506080534 45 256 10.0 18.0 0.00 0.00 0.00 51 1009.9
20260506073045 43 276 9.0 18.0 0.00 0.00 0.00 54 1009.5
20260506072530 44 278 9.0 17.0 0.00 0.00 0.00 57 1009.5
20260506072029 43 238 9.0 17.0 0.00 0.00 0.00 58 1009.5
20260506071545 43 254 10.0 19.0 0.00 0.00 0.00 55 1009.5
20260506071031 42 282 12.0 19.0 0.00 0.00 0.00 58 1009.4
20260506070532 41 261 11.0 19.0 0.00 0.00 0.00 60 1009.5
20260506062029 41 257 11.0 18.0 0.00 0.00 0.00 61 1009.1
20260506061539 41 297 9.0 20.0 0.00 0.00 0.00 64 1009.0
20260506061029 40 249 11.0 20.0 0.00 0.00 0.00 63 1008.9
20260506060532 40 278 12.0 20.0 0.00 0.00 0.00 64 1008.9
20260506051029 38 259 10.0 16.0 0.00 0.00 0.00 71 1008.5
20260506050530 38 288 10.0 16.0 0.00 0.00 0.00 72 1008.6
20260506045030 38 258 7.0 14.0 0.00 0.00 0.00 75 1008.5
20260506044622 37 266 6.0 14.0 0.00 0.00 0.00 75 1008.5
20260506044035 37 245 9.0 16.0 0.00 0.00 0.00 75 1008.3
20260506043533 37 261 6.0 16.0 0.00 0.00 0.00 76 1008.3
20260506043043 36 261 10.0 16.0 0.00 0.00 0.00 77 1008.2
20260506042533 36 259 5.0 10.0 0.00 0.00 0.00 78 1008.2
20260506042032 35 238 4.0 9.0 0.00 0.00 0.00 78 1008.2
20260506041559 35 238 4.0 10.0 0.00 0.00 0.00 79 1008.2
20260506041034 35 214 5.0 10.0 0.00 0.00 0.00 78 1008.2
20260506040536 34 236 5.0 10.0 0.00 0.00 0.00 79 1008.1
20260506040050 34 216 5.0 10.0 0.00 0.00 0.00 80 1008.1
20260506035535 33 242 5.0 10.0 0.00 0.00 0.00 81 1008.0
20260506035033 33 251 4.0 9.0 0.00 0.00 0.00 81 1007.9
20260506034605 33 240 4.0 9.0 0.00 0.00 0.00 82 1007.9
20260506034033 32 251 5.0 9.0 0.00 0.00 0.00 82 1007.9
20260506033533 32 253 4.0 9.0 0.00 0.00 0.00 82 1007.8
20260506033049 32 224 4.0 9.0 0.00 0.00 0.00 82 1007.7
20260506032533 31 237 4.0 8.0 0.00 0.00 0.00 83 1007.8
20260506032033 31 249 4.0 9.0 0.00 0.00 0.00 83 1007.7
20260506031542 31 238 4.0 10.0 0.00 0.00 0.00 83 1007.6
20260506031033 31 260 4.0 10.0 0.00 0.00 0.00 83 1007.5
20260506030534 31 260 4.0 8.0 0.00 0.00 0.00 83 1007.5
20260506030048 31 240 3.0 8.0 0.00 0.00 0.00 83 1007.4
20260506025534 31 252 4.0 9.0 0.00 0.00 0.00 83 1007.4
20260506025033 31 249 4.0 9.0 0.00 0.00 0.00 84 1007.4
20260506024542 31 236 4.0 9.0 0.00 0.00 0.00 84 1007.3
20260506024034 31 244 4.0 9.0 0.00 0.00 0.00 84 1007.2
20260506023534 31 221 3.0 10.0 0.00 0.00 0.00 85 1007.3
20260506023104 30 238 5.0 10.0 0.00 0.00 0.00 85 1007.2
20260506022533 30 234 4.0 9.0 0.00 0.00 0.00 85 1007.2
20260506022033 30 232 4.0 8.0 0.00 0.00 0.00 84 1007.2
20260506021546 30 253 2.0 5.0 0.00 0.00 0.00 84 1007.2
20260506021034 30 247 2.0 6.0 0.00 0.00 0.00 84 1007.1
20260506020535 30 235 3.0 8.0 0.00 0.00 0.00 84 1007.1
20260506020046 30 246 3.0 8.0 0.00 0.00 0.00 84 1007.0
20260506015535 30 249 3.0 8.0 0.00 0.01 0.00 84 1007.0